| time (UTC) | temp C | wind direction | speed KPH | gust KPH | rain 1hr cm | rain 24hr cm | rain mn cm | humidity % | barometer mb |
| 20260508121528 | 9 | 168 | 0.0 | 1.6 | 0.00 | 0.00 | 0.00 | 64 | 1019.8 |
| 20260508120035 | 9 | 308 | 0.0 | 4.8 | 0.00 | 0.00 | 0.00 | 65 | 1019.6 |
| 20260508114526 | 9 | 169 | 0.0 | 3.2 | 0.00 | 0.00 | 0.00 | 65 | 1019.6 |
| 20260508113024 | 9 | 210 | 0.0 | 0.0 | 0.00 | 0.00 | 0.00 | 65 | 1019.6 |
| 20260508111527 | 9 | 275 | 0.0 | 1.6 | 0.00 | 0.00 | 0.00 | 65 | 1019.4 |
| 20260508110019 | 9 | 234 | 0.0 | 1.6 | 0.00 | 0.00 | 0.00 | 65 | 1019.1 |
| 20260508104530 | 9 | 231 | 0.0 | 0.0 | 0.00 | 0.00 | 0.00 | 65 | 1019.0 |
| 20260508103028 | 9 | 133 | 0.0 | 0.0 | 0.00 | 0.00 | 0.00 | 65 | 1018.9 |
| 20260508101506 | 9 | 330 | 0.0 | 1.6 | 0.00 | 0.00 | 0.00 | 65 | 1018.8 |
| 20260508100006 | 9 | 165 | 0.0 | 0.0 | 0.00 | 0.00 | 0.00 | 65 | 1018.6 |
| 20260508094505 | 9 | 238 | 0.0 | 0.0 | 0.00 | 0.00 | 0.00 | 65 | 1018.6 |
| 20260508093024 | 9 | 303 | 0.0 | 1.6 | 0.00 | 0.00 | 0.00 | 64 | 1018.3 |
| 20260508091524 | 10 | 147 | 0.0 | 6.4 | 0.00 | 0.00 | 0.00 | 63 | 1018.1 |
| 20260508090018 | 10 | 314 | 1.6 | 9.7 | 0.00 | 0.00 | 0.00 | 62 | 1018.2 |
| 20260508084516 | 10 | 281 | 0.0 | 6.4 | 0.00 | 0.00 | 0.00 | 63 | 1018.3 |
| 20260508083012 | 10 | 158 | 0.0 | 4.8 | 0.00 | 0.00 | 0.00 | 63 | 1018.2 |
| 20260508081510 | 10 | 129 | 0.0 | 1.6 | 0.00 | 0.00 | 0.00 | 62 | 1018.0 |
| 20260508080007 | 10 | 264 | 0.0 | 1.6 | 0.00 | 0.00 | 0.00 | 62 | 1017.9 |
| 20260508074526 | 10 | 243 | 0.0 | 4.8 | 0.00 | 0.00 | 0.00 | 61 | 1017.8 |
| 20260508073025 | 10 | 224 | 0.0 | 1.6 | 0.00 | 0.00 | 0.00 | 61 | 1017.5 |
| 20260508071522 | 10 | 141 | 0.0 | 1.6 | 0.00 | 0.00 | 0.00 | 61 | 1017.4 |
| 20260508070020 | 11 | 135 | 0.0 | 0.0 | 0.00 | 0.00 | 0.00 | 60 | 1017.5 |
| 20260508064525 | 11 | 162 | 0.0 | 1.6 | 0.00 | 0.00 | 0.00 | 59 | 1017.4 |
| 20260508063013 | 11 | 195 | 0.0 | 1.6 | 0.00 | 0.00 | 0.00 | 59 | 1017.4 |
| 20260508061512 | 11 | 244 | 0.0 | 1.6 | 0.00 | 0.00 | 0.00 | 58 | 1017.2 |
| 20260508060029 | 12 | 325 | 0.0 | 4.8 | 0.00 | 0.00 | 0.00 | 58 | 1017.3 |
| 20260508054527 | 12 | 291 | 0.0 | 3.2 | 0.00 | 0.00 | 0.00 | 57 | 1017.4 |
| 20260508053030 | 12 | 222 | 0.0 | 1.6 | 0.00 | 0.00 | 0.00 | 56 | 1017.4 |
| 20260508051530 | 13 | 221 | 0.0 | 1.6 | 0.00 | 0.00 | 0.00 | 55 | 1017.3 |
| 20260508050021 | 13 | 215 | 0.0 | 6.4 | 0.00 | 0.00 | 0.00 | 55 | 1017.3 |
| 20260508044518 | 13 | 324 | 0.0 | 1.6 | 0.00 | 0.00 | 0.00 | 53 | 1017.3 |
| 20260508043020 | 14 | 337 | 0.0 | 1.6 | 0.00 | 0.00 | 0.00 | 52 | 1017.3 |
| 20260508041528 | 14 | 214 | 0.0 | 1.6 | 0.00 | 0.00 | 0.00 | 51 | 1017.1 |
| 20260508040029 | 15 | 319 | 0.0 | 4.8 | 0.00 | 0.00 | 0.00 | 50 | 1016.8 |
| 20260508034504 | 15 | 314 | 0.0 | 3.2 | 0.00 | 0.00 | 0.00 | 50 | 1016.7 |
| 20260508033004 | 16 | 272 | 0.0 | 4.8 | 0.00 | 0.00 | 0.00 | 49 | 1016.6 |
| 20260508031504 | 17 | 325 | 0.0 | 6.4 | 0.00 | 0.00 | 0.00 | 48 | 1016.4 |
| 20260508030003 | 18 | 321 | 0.0 | 3.2 | 0.00 | 0.00 | 0.00 | 46 | 1016.5 |
| 20260508024503 | 19 | 308 | 0.0 | 1.6 | 0.00 | 0.00 | 0.00 | 45 | 1016.5 |
| 20260508023004 | 21 | 188 | 0.0 | 1.6 | 0.00 | 0.00 | 0.00 | 42 | 1016.4 |
| 20260508021505 | 21 | 122 | 0.0 | 1.6 | 0.00 | 0.00 | 0.00 | 31 | 1016.2 |
| 20260508020010 | 22 | 222 | 0.0 | 1.6 | 0.00 | 0.00 | 0.00 | 37 | 1016.2 |
| 20260508014510 | 22 | 301 | 0.0 | 1.6 | 0.00 | 0.00 | 0.00 | 36 | 1016.3 |
| 20260508013003 | 22 | 7 | 0.0 | 0.0 | 0.00 | 0.00 | 0.00 | 35 | 1016.5 |
| 20260508011503 | 23 | 171 | 0.0 | 1.6 | 0.00 | 0.00 | 0.00 | 33 | 1016.6 |
| 20260508010004 | 23 | 63 | 0.0 | 1.6 | 0.00 | 0.00 | 0.00 | 32 | 1016.6 |
| 20260508004510 | 23 | 120 | 0.0 | 0.0 | 0.00 | 0.00 | 0.00 | 33 | 1016.7 |
| 20260508003006 | 23 | 68 | 0.0 | 1.6 | 0.00 | 0.00 | 0.00 | 31 | 1016.9 |
| 20260508001509 | 23 | 114 | 0.0 | 1.6 | 0.00 | 0.00 | 0.00 | 31 | 1017.1 |
| 20260508000011 | 23 | 58 | 0.0 | 1.6 | 0.00 | 0.00 | 0.00 | 30 | 1017.0 |
| 20260507234506 | 23 | 120 | 0.0 | 1.6 | 0.00 | 0.00 | 0.00 | 31 | 1017.1 |
| 20260507233005 | 22 | 60 | 0.0 | 1.6 | 0.00 | 0.00 | 0.00 | 31 | 1017.3 |
| 20260507231504 | 22 | 63 | 0.0 | 1.6 | 0.00 | 0.00 | 0.00 | 32 | 1017.5 |
| 20260507230013 | 22 | 120 | 0.0 | 1.6 | 0.00 | 0.00 | 0.00 | 35 | 1017.7 |
| 20260507224516 | 22 | 110 | 0.0 | 1.6 | 0.00 | 0.00 | 0.00 | 35 | 1018.0 |
| 20260507223014 | 22 | 15 | 0.0 | 1.6 | 0.00 | 0.00 | 0.00 | 33 | 1018.1 |
| 20260507221513 | 21 | 321 | 0.0 | 1.6 | 0.00 | 0.00 | 0.00 | 32 | 1018.2 |
| 20260507220009 | 21 | 297 | 0.0 | 3.2 | 0.00 | 0.00 | 0.00 | 29 | 1018.5 |
| 20260507214520 | 21 | 359 | 0.0 | 3.2 | 0.00 | 0.00 | 0.00 | 32 | 1018.6 |
| 20260507213006 | 21 | 221 | 0.0 | 3.2 | 0.00 | 0.00 | 0.00 | 35 | 1018.8 |
| 20260507211519 | 20 | 29 | 0.0 | 1.6 | 0.00 | 0.00 | 0.00 | 35 | 1019.1 |
| 20260507210017 | 21 | 55 | 0.0 | 1.6 | 0.00 | 0.00 | 0.00 | 36 | 1019.2 |
| 20260507204520 | 19 | 94 | 0.0 | 3.2 | 0.00 | 0.00 | 0.00 | 40 | 1019.4 |
| 20260507203020 | 19 | 207 | 0.0 | 3.2 | 0.00 | 0.00 | 0.00 | 41 | 1019.6 |
| 20260507201517 | 20 | 63 | 0.0 | 1.6 | 0.00 | 0.00 | 0.00 | 41 | 1019.7 |
| 20260507200014 | 18 | 302 | 0.0 | 3.2 | 0.00 | 0.00 | 0.00 | 45 | 1019.8 |
| 20260507194511 | 19 | 56 | 0.0 | 3.2 | 0.00 | 0.00 | 0.00 | 44 | 1019.9 |
| 20260507193022 | 18 | 49 | 0.0 | 1.6 | 0.00 | 0.00 | 0.00 | 45 | 1020.1 |
| 20260507191524 | 18 | 75 | 0.0 | 6.4 | 0.00 | 0.00 | 0.00 | 46 | 1020.3 |
| 20260507190022 | 18 | 53 | 0.0 | 1.6 | 0.00 | 0.00 | 0.00 | 47 | 1020.3 |
| 20260507184523 | 17 | 60 | 0.0 | 1.6 | 0.00 | 0.00 | 0.00 | 50 | 1020.5 |
| 20260507183021 | 16 | 296 | 0.0 | 1.6 | 0.00 | 0.00 | 0.00 | 49 | 1020.5 |
| 20260507181519 | 16 | 298 | 0.0 | 1.6 | 0.00 | 0.00 | 0.00 | 50 | 1020.7 |
| 20260507180013 | 16 | 63 | 0.0 | 3.2 | 0.00 | 0.00 | 0.00 | 51 | 1020.8 |
| 20260507174515 | 16 | 58 | 0.0 | 4.8 | 0.00 | 0.00 | 0.00 | 52 | 1021.0 |
| 20260507173022 | 15 | 91 | 0.0 | 1.6 | 0.00 | 0.00 | 0.00 | 54 | 1020.9 |
| 20260507171508 | 15 | 304 | 0.0 | 4.8 | 0.00 | 0.00 | 0.00 | 54 | 1021.0 |
| 20260507170003 | 15 | 58 | 0.0 | 0.0 | 0.00 | 0.00 | 0.00 | 54 | 1020.9 |
| 20260507164504 | 15 | 159 | 0.0 | 3.2 | 0.00 | 0.00 | 0.00 | 56 | 1020.9 |
| 20260507163022 | 13 | 72 | 0.0 | 0.0 | 0.00 | 0.00 | 0.00 | 56 | 1020.9 |
| 20260507161523 | 13 | 90 | 0.0 | 0.0 | 0.00 | 0.00 | 0.00 | 57 | 1021.0 |
| 20260507160018 | 13 | 122 | 0.0 | 0.0 | 0.00 | 0.00 | 0.00 | 57 | 1020.9 |
| 20260507154516 | 13 | 65 | 0.0 | 0.0 | 0.00 | 0.00 | 0.00 | 58 | 1021.1 |
| 20260507153014 | 12 | 64 | 0.0 | 0.0 | 0.00 | 0.00 | 0.00 | 58 | 1021.2 |
| 20260507151511 | 12 | 280 | 0.0 | 1.6 | 0.00 | 0.00 | 0.00 | 59 | 1021.3 |
| 20260507150008 | 12 | 316 | 0.0 | 1.6 | 0.00 | 0.00 | 0.00 | 60 | 1021.3 |
| 20260507144536 | 12 | 297 | 0.0 | 1.6 | 0.00 | 0.00 | 0.00 | 60 | 1021.3 |
| 20260507143025 | 12 | 293 | 0.0 | 0.0 | 0.00 | 0.00 | 0.00 | 60 | 1021.3 |
| 20260507141523 | 11 | 326 | 0.0 | 0.0 | 0.00 | 0.00 | 0.00 | 61 | 1021.1 |
| 20260507140024 | 11 | 304 | 0.0 | 0.0 | 0.00 | 0.00 | 0.00 | 61 | 1020.9 |
| 20260507134517 | 11 | 301 | 0.0 | 0.0 | 0.00 | 0.00 | 0.00 | 61 | 1020.8 |
| 20260507133013 | 11 | 301 | 0.0 | 0.0 | 0.00 | 0.00 | 0.00 | 61 | 1020.7 |
| 20260507131512 | 11 | 301 | 0.0 | 0.0 | 0.00 | 0.00 | 0.00 | 61 | 1020.8 |
| 20260507130026 | 11 | 39 | 0.0 | 0.0 | 0.00 | 0.00 | 0.00 | 62 | 1020.9 |
| 20260507124527 | 11 | 39 | 0.0 | 0.0 | 0.00 | 0.00 | 0.00 | 62 | 1020.9 |
| 20260507123026 | 11 | 34 | 0.0 | 0.0 | 0.00 | 0.00 | 0.00 | 61 | 1020.9 |